Weather in Uzyan

Russia / Republic of Bashkortostan     53°41′29″N   57°51′45″E
temp.,
°C
wind,
m/s
gust,
m/s
humid.,
%
clouds,
%
prec.,
mm/h
press.,
hPa
HPBL,
m
28 february, sun
sun2823:00−15ese229798 0.7 100636
02:00−15ese2297100 0.1 100562
05:00−14e229798 0.3 100386
08:00−13ese2297100 0.7 100295
11:00−10ese2293100 1.1 1002233
14:00−6ese1290100 0.3 1001389
17:00−5ese1293100 0.6 1002282
20:00−9e119794 0.3 100522
1 march, mon
mon123:00−12ese119786 0.4 100821
02:00−13se119792 0.1 101020
05:00−14s119791 0.3 101221
08:00−14ssw129793 0.3 101420
11:00−9sw119291 0.3 1015296
14:00−6w1290100 0.3 1015450
17:00−8nw2392100 0.5 1016414
20:00−13nw129793 0.1 101724
2 march, tue
tue223:00−18wnw119881 0.2 101820
02:00−19w119971 0.0 101820
05:00−21w1110081 0.1 101820
08:00−22sw1210094 0.0 101720
11:00−15ssw239491 0.0 1016235
14:00−10sw368774 0.0 1013521
17:00−10ssw489286 0.1 1011528
20:00−14ssw51094100 0.1 1010419
3 march, wed
wed323:00−16ssw41094100 0.3 1009420
02:00−14ssw41394100 0.2 1006454
05:00−10ssw4139499 0.8 1004637
08:00−8ssw41294100 0.6 1001723
11:00−4ssw5993100 0.9 1000835
14:00−3sw4893100 0.6 999838
17:00−3wsw4792100 1.4 998820
20:00−6wsw2597100 0.4 999216
4 march, thu
thu423:00−10w249698 0.7 1002143
02:00−12w229799 0.1 100230
05:00−14w129798 0.1 100421
08:00−14w2297100 0.1 100623
11:00−9wnw3789100 0.1 1007792
14:00−7wnw5984100 0.2 10081267
17:00−9wnw5888100 0.4 1010918
20:00−13wsw3796100 0.1 1012270